Location: Buckeye Ditch
(40.9104°N, 122.9517°W)
Time: 17:56:11
(UTC+00:00)

BlueWalker 3 - Pass Details

Date: 26 June 2024
Orbit: 480 x 491 km, 53.2° (Epoch: 23 July)

Event Time Altitude Azimuth Distance (km) Brightness Sun altitude
Rises 09:10:38 0° 309° (NW) 2,538 5.8 -24.5°
Reaches altitude 10° 09:12:48 10° 309° (NW) 1,656 4.8 -24.4°
Enters shadow 09:14:39 28° 309° (NW) 936 3.5 -24.3°
